DELTA 4 R/B, 40102

Orbit data source: Space-Track

DELTA 4 R/B, 40102 is space debris in GEO originally from a launch on Mon, 28 Jul 2014 UTC launched from the Air Force Eastern Test Range (AFETR). Debris objects in space refer to the collection of defunct objects orbiting the Earth. Examples of debris include non-operational satellites, rocket bodies, and fragments generated from explosions, collisions, or faulty payload assembly.

Loading next visibility...
Identifier
40102, 2014-043D
Orbit
GEO
Country
Flag of USUS
Related business
Flag of USUnited Launch Alliance/Lockheed Martin (US)
Manufacturer
ULA Decatur
Mission
Spacecraft
Bus & Motor
DCSS-4, RL10B-2
Mass
2,850 kg wet, 2,850 kg dry
Launch date (UTC)
2014-07-28 (12 years ago)
Launch vehicle
Unknown
Launch site
Air Force Eastern Test Range (AFETR)
Object type
Payload
Rocket body
Debris
Shape & HBR
Cyl + 1 Nozzle, 6.0 m
Radar Cross Section
43.982 m², Large (>1 m²)

Expand to show TLE details & history
Last TLE update: 3 days ago

TLE from 3 days ago
0 DELTA 4 R/B
1 40102U 14043D   26170.68331601 -.00000006  00000-0  00000-0 0  9990
2 40102   9.2066  57.3179 0009337 307.8530  51.9910  0.98911032 26064
Epoch: 2026-06-19T16:23Z
TLE epoch observation values (Epoch: 2026-06-19T16:23:58.503Z)
Latitude
0.00001°
Longitude
-96.64153°
Altitude
36,147.623 km
Speed
3.062 km/s
True Right ascension
03h 49m 02s
True Declination
0° 00' 00"
Sunlit
Object was in daylight at epoch
Visualization orbit readout
Latitude
Unknown
Longitude
Unknown
Altitude
Unknown
Speed
Unknown
Apparent Right ascension
Unknown
Apparent Declination
Unknown
Sunlit
N/A
Visualization observer readout
Local Sidereal Time
21:34:51
Azimuth
Unknown
Elevation
Unknown
Doppler factor
Unknown
Orbital elements
Apogee altitude
36,213.182 km
Perigee altitude
36,133.721 km
Semi-major axis
42,551.588 km
Eccentricity
0.00093
Inclination
9.2066°
RAAN
57.3179°
Arg. of periapsis
307.853°
True anomaly
52.07536°
Mean anomaly
51.991°
Eccentric anomaly
52.03318°
Mean motion
0.24727 °/min
Orbital period
1,455.9 mins
BSTAR
0
Loading maneuver chart data...
Computing Atmospheric mass density...
Loading historical data...
Loading historical data...
Loading historical data...
Loading historical data...
Loading historical data...
Loading historical data...
Loading historical data...
Other satellites on launch #43 in the year 2014 (2014-07-28 UTC)

Documentation

Showing up to 5 results
|